Weather History for Bradford, PA

Change the Weather History Date:

Tuesday, August 7, 2012

  Actual Average Record
Temperature  
Mean Temperature 64 °F 65 °F  
Max Temperature 81 °F 77 °F 87 °F (2001)
Min Temperature 46 °F 53 °F 36 °F (1997)
Degree Days  
Heating Degree Days 2 0  
Month to date heating degree days 0  
Since 1 June heating degree days 209  
Since 1 July heating degree days 64  
Cooling Degree Days 0 2  
Month to date cooling degree days 14  
Year to date cooling degree days 138  
Since 1 June cooling degree days 128  
Growing Degree Days 14 (Base 50)    
Moisture  
Dew Point 51 °F    
Average Humidity 65    
Maximum Humidity 90    
Minimum Humidity 33    
Precipitation  
Precipitation 0.00 in 0.13 in 3.11 in (2007)
Month to date precipitation 0.95  
Year to date precipitation 26.79  
Sea Level Pressure  
Sea Level Pressure 30.03 in    
Wind  
Wind Speed 2 mph (WSW)    
Max Wind Speed 9 mph    
Max Gust Speed -    
Visibility 10 miles    
Events      
T = Trace of Precipitation, MM = Missing Value Source: NWS Daily Summary

Daily Weather History Graph

Daily Weather History Graph

Search for Another Location

Airport:

Trip Planner

Search our weather history database for the weather conditions in past years. The results will help you decide how hot, cold, wet, or windy it might be!

Date:

Astronomy

Aug. 07, 2012 Rise Set
Actual Time 6:15 AM EDT 8:24 PM EDT
Civil Twilight 5:44 AM EDT 8:55 PM EDT
Nautical Twilight 5:06 AM EDT 9:33 PM EDT
Astronomical Twilight 4:24 AM EDT 10:14 PM EDT
Moon 10:57 PM EDT (8/7) 12:07 PM EDT (8/7)
Length of Visible Light 15h 11m
Length of Day
14h 09m
Waning Gibbous, 70% of the Moon is Illuminated
Aug 7
Waning Gibbous
Aug 9
Last Quarter
Aug 17
New
Aug 24
First Quarter
Aug 31
Full

Hourly Weather History & Observations

Time (EDT) Temp. Heat Index Dew Point Humidity Pressure Visibility Wind Dir Wind Speed Gust Speed Precip Events Conditions
12:53 AM 52.0 °F - 48.9 °F 89% 30.07 in 8.0 mi Calm Calm - N/A   Clear
1:53 AM 52.0 °F - 48.0 °F 86% 30.06 in 10.0 mi Calm Calm - N/A   Clear
2:53 AM 48.9 °F - 46.0 °F 90% 30.06 in 10.0 mi Calm Calm - N/A   Clear
3:53 AM 48.0 °F - 45.0 °F 89% 30.04 in 10.0 mi Calm Calm - N/A   Clear
4:53 AM 46.9 °F - 44.1 °F 90% 30.04 in 10.0 mi ESE 3.5 mph - N/A   Clear
5:53 AM 46.9 °F - 43.0 °F 86% 30.04 in 10.0 mi Calm Calm - N/A   Clear
6:53 AM 48.9 °F - 45.0 °F 86% 30.05 in 10.0 mi Calm Calm - N/A   Clear
7:53 AM 57.9 °F - 52.0 °F 81% 30.05 in 10.0 mi Calm Calm - N/A   Clear
8:53 AM 66.0 °F - 57.0 °F 73% 30.05 in 10.0 mi Calm Calm - N/A   Clear
9:53 AM 71.1 °F - 54.0 °F 55% 30.04 in 10.0 mi Calm Calm - N/A   Clear
10:53 AM 73.0 °F - 55.0 °F 53% 30.05 in 10.0 mi WNW 5.8 mph - N/A   Clear
11:53 AM 75.0 °F - 51.1 °F 43% 30.04 in 10.0 mi WSW 6.9 mph - N/A   Clear
12:53 PM 75.9 °F - 52.0 °F 43% 30.04 in 10.0 mi Variable 3.5 mph - N/A   Clear
1:53 PM 77.0 °F - 50.0 °F 39% 30.02 in 10.0 mi SSW 9.2 mph - N/A   Clear
2:53 PM 79.0 °F - 50.0 °F 36% 30.01 in 10.0 mi Variable 4.6 mph - N/A   Clear
3:53 PM 80.1 °F - 50.0 °F 35% 30.00 in 10.0 mi WNW 9.2 mph - N/A   Clear
4:53 PM 81.0 °F - 48.9 °F 33% 30.00 in 10.0 mi West 6.9 mph - N/A   Clear
5:53 PM 80.1 °F 79.9 °F 53.1 °F 39% 29.99 in 10.0 mi West 4.6 mph - N/A   Clear
6:53 PM 79.0 °F - 54.0 °F 42% 29.99 in 10.0 mi WSW 4.6 mph - N/A   Clear
7:53 PM 75.9 °F - 55.9 °F 50% 29.98 in 10.0 mi Calm Calm - N/A   Clear
8:53 PM 68.0 °F - 57.9 °F 70% 30.00 in 10.0 mi Calm Calm - N/A   Clear
9:53 PM 63.0 °F - 57.0 °F 81% 30.01 in 10.0 mi Calm Calm - N/A   Clear
10:53 PM 62.1 °F - 57.0 °F 84% 30.00 in 10.0 mi Calm Calm - N/A   Clear
11:53 PM 57.9 °F - 55.0 °F 90% 30.01 in 7.0 mi ESE 3.5 mph - N/A   Clear